Location: ?�kov
(49.4404°N, 15.1201°E)
Time: 05:17:09
(UTC+00:00)

ADEOS II - Pass Details

Date: 07 June 2020
Orbit: 800 x 800 km, 98.5° (Epoch: 14 July)

Event Time Altitude Azimuth Distance (km) Brightness Sun altitude
Rises 01:01:48 0° 18° (NNE) 3,322 7.1 -12.7°
Reaches altitude 10° 01:04:14 10° 24° (NNE) 2,387 6.1 -12.5°
Maximum altitude 01:09:20 48° 99° (E) 1,037 2.8 -12.1°
Drops below altitude 10° 01:14:24 10° 174° (S) 2,370 4.1 -11.7°
Enters shadow 01:14:40 - 175° (S) 2,471 4.2 -11.7°
